Regional Weather Roundup
Issued by NWS

Home | Current Version | Previous Version | Graphics & Text | Print | Product List | Glossary On
Versions: 1 2 3 4 5 6 7 8 9 10 11 12 13 14 15 16 17 18 19 20 21 22 23 24 25 26 27 28 29 30 31 32 33 34 35 36 37 38 39 40 41 42 43 44 45 46 47 48 49 50
000
ASUS43 KLSX 030757
RWRMO

WEATHER SUMMARY FOR MISSOURI
NATIONAL WEATHER SERVICE SPRINGFIELD MO
300 AM CDT TUE MAY 03 2016

NOTE: "FAIR" INDICATES FEW OR NO CLOUDS BELOW 12,000 FEET WITH NO
       SIGNIFICANT WEATHER AND/OR OBSTRUCTIONS TO VISIBILITY.
       CURRENT SKY AND/OR WEATHER CONDITIONS ARE NOT AVAILABLE FOR
       CHILLICOTHE AND FARMINGTON.

MOZ001>031-035>038-043-044-053-054-030900-
...NORTHERN AND WESTERN MISSOURI...

CITY           SKY/WX    TMP DP  RH WIND       PRES   REMARKS
KANSAS CTY INT CLEAR     46  43  89 W5        30.06S
LEE`S SUMMIT   CLEAR     45  44  97 SW5       30.06S
ST JOSEPH      FOG       41  41 100 CALM      30.07R VSB 1/2
CHILLICOTHE      N/A     42  41  96 CALM      30.06F

$$
MOZ066>068-077>081-088>096-101>105-030900-
...SOUTHWEST MISSOURI...

CITY           SKY/WX    TMP DP  RH WIND       PRES   REMARKS
SPRINGFIELD    CLOUDY    47  44  90 N3        30.05S
JOPLIN         FOG       42  42 100 CALM      30.07F VSB 1

$$
MOZ032>034-039>042-045>050-055>058-069>072-030900-
...CENTRAL MISSOURI...

CITY           SKY/WX    TMP DP  RH WIND       PRES   REMARKS
COLUMBIA       NOT AVBL
JEFFERSON CITY FOG       46  46 100 CALM      30.05F VSB 1/4
ROLLA          CLOUDY    48  47  96 NW7       30.02S
SEDALIA        CLEAR     45  44  97 SW6       30.06F
WARRENSBURG    FOG       43  41  93 CALM      30.05F VSB 1/4

$$
MOZ051-052-059>065-030900-
...EAST CENTRAL MISSOURI...

CITY           SKY/WX    TMP DP  RH WIND       PRES   REMARKS
ST LOUIS INTL  CLOUDY    53  49  86 NW5       30.01F

$$
MOZ072>076-082>087-097>100-106>115-030900-
...SOUTH CENTRAL AND SOUTHEAST MISSOURI...

CITY           SKY/WX    TMP DP  RH WIND       PRES   REMARKS
CAPE GIRARDEAU CLOUDY    54  50  86 NW5       29.99F
POPLAR BLUFF   CLOUDY    55  48  77 NW6       30.00F
WEST PLAINS    CLOUDY    51  45  79 VRB3      30.03F

$$



USA.gov is the U.S. government's official web portal to all federal, state and local government web resources and services.